Location: Doverdale
(52.2833°N, 2.2000°W)
Time: 04:00:54
(UTC+00:00)

Cosmos 2219 - Pass Details

Date: 29 October 2020
Orbit: 832 x 862 km, 71.1° (Epoch: 25 November)

Event Time Altitude Azimuth Distance (km) Brightness Sun altitude
Rises 18:01:50 0° 327° (NNW) 3,448 6.8 -12.3°
Reaches altitude 10° 18:04:19 10° 324° (NW) 2,509 6.1 -12.7°
Maximum altitude 18:09:58 58° 247° (WSW) 1,004 3.9 -13.5°
Drops below altitude 10° 18:15:35 10° 169° (S) 2,494 5.6 -14.4°
Sets 18:18:03 0° 166° (SSE) 3,425 6.3 -14.8°
